#timestamp,LO_Frequency,Hit 
1501045235.2,286046999.2,Y
1501045255.0,286047000.7,Y
1501045255.9,286047000.7,N
1501045275.8,286046998.3,N
1501045295.6,286046997.1,Y
1501045315.4,286047000.7,N
1501045335.3,286047000.4,N
1501045355.1,286047001.4,N
1501045375.9,286047002.3,N
1501045395.7,286046998.4,N
1501045415.5,286046999.0,N
1501045435.4,286047001.1,N
1501045455.2,286047001.4,N
1501045475.1,286047004.3,N
1501045476.0,286047004.3,N
1501045495.8,286047003.6,N
1501045515.6,286047002.0,N
1501045535.5,286047003.7,N
1501045555.3,286047001.4,N
1501045575.1,286046999.8,N
1501045595.9,286046998.3,N
1501045615.7,286047001.1,N
1501045635.6,286046999.4,N
1501045655.4,286046998.3,N
1501045675.2,286046998.7,N
1501045695.1,286047000.4,N
1501045696.0,286047000.4,N
1501045715.8,286046999.5,N
1501045735.7,286046996.8,Y
1501045755.5,286047000.8,N
1501045775.3,286047000.3,N
1501045795.2,286047000.6,N
1501045815.0,286046997.1,N
1501045815.9,286046997.1,N
1501045835.7,286046995.8,N
1501045855.6,286046995.5,N
1501045875.4,286046997.0,N
1501045895.3,286046998.6,N
1501045915.1,286046998.8,N
1501045916.0,286046998.8,N
1501045935.8,286046999.1,N
1501045955.7,286046997.3,N
1501045975.5,286046999.5,N
1501045995.4,286046998.8,N
1501046015.2,286046998.5,N
1501046035.0,286046998.8,N
1501046035.9,286046998.8,N
1501046055.8,286046999.1,N
1501046075.6,286046999.1,N
1501046095.5,286046998.5,N
1501046115.3,286047000.9,N
1501046135.1,286047001.2,N
1501046155.9,286047000.5,N
1501046175.7,286046998.4,N
1501046195.5,286046999.5,N
1501046215.4,286046999.2,N
1501046235.2,286046998.7,N
1501046255.1,286047001.2,N
1501046256.0,286047001.2,N
1501046275.8,286046998.4,N
1501046295.6,286047001.1,N
1501046315.5,286046999.9,N
1501046335.3,286047000.5,N
1501046355.1,286047000.9,N
1501046375.9,286047000.6,N
1501046395.7,286046998.6,N
1501046415.6,286047000.3,N
1501046435.4,286047001.6,N
1501046455.2,286047001.5,N
1501046475.1,286047003.9,Y
1501046476.0,286047003.9,N
1501046495.8,286047001.7,N
1501046515.7,286047004.4,Y
1501046535.5,286047000.2,N
1501046555.3,286047001.7,N
1501046575.2,286047002.3,N
1501046595.0,286047002.4,N
1501046595.9,286047002.4,N
1501046615.7,286047001.8,N
1501046635.6,286047002.1,N
1501046655.4,286047002.6,N
1501046675.3,286047001.1,N
1501046695.1,286047002.3,N
1501046696.0,286047002.3,N
1501046715.8,286047000.5,N
1501046735.7,286046999.9,N
1501046755.5,286046998.3,N
1501046775.4,286046999.2,N
1501046795.2,286046999.5,N
1501046815.0,286046998.9,N
1501046815.9,286046998.9,N
1501046835.8,286046996.9,N
1501046855.6,286046998.3,N
1501046875.4,286047002.5,N
1501046895.3,286047000.3,N
1501046915.1,286046999.7,N
1501046935.9,286047000.4,N
1501046955.7,286046998.7,N
1501046975.5,286047000.5,N
1501046995.4,286046999.6,N
1501047015.2,286046997.4,N
1501047035.0,286046995.1,Y
1501047035.9,286046995.1,N
1501047055.8,286046999.2,N
1501047075.6,286046996.9,N
1501047095.5,286046997.6,N
1501047115.3,286046994.9,N
1501047135.1,286046997.9,N
1501047155.9,286046995.7,N
1501047175.7,286046995.6,N
1501047195.6,286046995.2,N
1501047215.4,286046998.0,N
1501047235.2,286046998.4,N
1501047255.1,286046998.1,N
1501047256.0,286046998.1,N
1501047275.8,286046999.1,N
1501047295.6,286047001.0,N
1501047315.5,286047002.0,N
1501047335.3,286047000.1,N
1501047355.2,286047001.1,N
1501047375.9,286046998.1,N
1501047395.7,286047001.2,N
1501047415.6,286047000.7,N
1501047435.4,286047002.5,N
1501047455.2,286047004.0,N
1501047475.1,286047001.4,N
1501047476.0,286047001.4,N
1501047495.8,286047001.3,N
1501047515.7,286047001.3,N
1501047535.5,286047002.7,N
1501047555.3,286047000.8,N
1501047575.2,286046998.6,N
1501047595.0,286047002.8,N
1501047595.9,286047002.8,N
1501047615.7,286047001.9,N
1501047635.6,286047001.5,N
1501047655.4,286047001.4,N
1501047675.3,286047001.8,N
1501047695.1,286047003.9,Y
1501047715.8,286047000.1,N
1501047735.7,286047000.2,N
1501047755.5,286046997.2,N
1501047775.4,286046999.5,N
1501047795.2,286046997.8,N
1501047815.0,286046999.2,N
1501047815.9,286046999.2,N
1501047835.8,286046998.1,N
1501047855.6,286047001.2,N
1501047875.4,286046996.7,N
1501047895.3,286046993.4,Y
1501047915.1,286046992.3,Y
1501047935.9,286046990.4,Y
1501047955.7,286046993.5,N
1501047975.5,286046986.3,Y
1501047995.4,286046995.7,N
1501048015.2,286046997.7,N
1501048035.1,286046996.6,N
1501048036.0,286046996.6,N
1501048055.8,286046998.1,N
1501048075.6,286046998.5,N
1501048095.5,286047002.8,N
1501048115.3,286047002.8,N
1501048135.1,286047002.5,N
1501048155.9,286047002.8,N
1501048175.7,286047000.5,N
1501048195.6,286047000.5,N
1501048215.4,286047002.8,N
1501048235.2,286046998.1,N
1501048255.1,286046996.7,N
1501048256.0,286046996.7,N
1501048275.8,286046998.7,N
1501048295.7,286046999.0,N
1501048315.5,286046998.1,N
1501048335.3,286047000.2,N
1501048355.2,286047000.2,N
1501048375.9,286046999.4,N
1501048395.7,286046996.7,N
1501048415.6,286046998.8,N
1501048435.4,286046999.3,N
1501048455.3,286046999.4,N
1501048475.1,286047000.5,N
1501048476.0,286047000.5,N
1501048495.8,286047000.0,N
1501048515.7,286047001.7,N
1501048535.5,286047003.1,N
1501048555.3,286047003.6,N
1501048575.2,286047000.2,N
1501048595.0,286047001.0,N
1501048595.9,286047001.0,N
1501048615.8,286046999.8,N
1501048635.6,286047001.1,N
1501048655.4,286047002.4,N
1501048675.3,286047000.1,N
1501048695.1,286047000.1,N
1501048715.8,286047001.1,N
1501048735.7,286047000.6,N
1501048755.5,286047000.1,N
1501048775.4,286047003.7,Y
1501048795.2,286047002.0,N
